Terug naar catalogus

OBJECT D

ActiefSSO
NORAD 100146·UNKNOWN·🇨🇳 China

Gelanceerd Jul 23, 2026 vanaf Jiuquan Satellite Launch Center

Loading…

Volgende Passages (komende 24 uur)

TLE

VersSource: Space-Track

Epoch: Sep 14, 2026, 10:59 UTC

1 A0146U 26170D   26257.45817958  .00001266  00000-0  86777-4 0  9990
2 A0146  97.5573 263.4007 0016689  99.5617 260.7498 15.07718280  7910

Volg OBJECT D in realtime met AllMySat

Download on the App Store